| time (UTC) | temp C | wind direction | speed KPH | gust KPH | rain 1hr cm | rain 24hr cm | rain mn cm | humidity % | barometer mb |
| 20260506050732 | 20 | 355 | 3.2 | 17.7 | 0.00 | 0.00 | 0.00 | 76 | 1008.1 |
| 20260506043732 | 21 | 326 | 6.4 | 19.3 | 0.00 | 0.00 | 0.00 | 73 | 1007.9 |
| 20260506040732 | 21 | 326 | 6.4 | 19.3 | 0.00 | 0.00 | 0.00 | 73 | 1007.9 |
| 20260506033732 | 23 | 308 | 6.4 | 19.3 | 0.00 | 0.00 | 0.00 | 69 | 1007.1 |
| 20260506032731 | 23 | 308 | 6.4 | 19.3 | 0.00 | 0.00 | 0.00 | 69 | 1007.1 |
| 20260506031734 | 23 | 308 | 6.4 | 19.3 | 0.00 | 0.00 | 0.00 | 69 | 1007.1 |
| 20260506030732 | 23 | 308 | 6.4 | 19.3 | 0.00 | 0.00 | 0.00 | 69 | 1007.1 |
| 20260506024733 | 25 | 198 | 3.2 | 6.4 | 0.00 | 0.00 | 0.00 | 80 | 1005.5 |
| 20260506023731 | 25 | 198 | 3.2 | 6.4 | 0.00 | 0.00 | 0.00 | 80 | 1005.5 |
| 20260506020732 | 25 | 198 | 3.2 | 6.4 | 0.00 | 0.00 | 0.00 | 80 | 1005.5 |
| 20260506014731 | 26 | 193 | 9.7 | 22.5 | 0.00 | 0.00 | 0.00 | 77 | 1004.4 |
| 20260506010732 | 26 | 193 | 9.7 | 22.5 | 0.00 | 0.00 | 0.00 | 77 | 1004.4 |
| 20260506004732 | 27 | 180 | 12.9 | 25.7 | 0.00 | 0.00 | 0.00 | 75 | 1004.2 |
| 20260506001732 | 27 | 180 | 12.9 | 25.7 | 0.00 | 0.00 | 0.00 | 75 | 1004.2 |
| 20260505234731 | 28 | 181 | 12.9 | 27.4 | 0.00 | 0.00 | 0.00 | 71 | 1003.9 |
| 20260505233731 | 28 | 181 | 12.9 | 27.4 | 0.00 | 0.00 | 0.00 | 71 | 1003.9 |
| 20260505230731 | 28 | 181 | 12.9 | 27.4 | 0.00 | 0.00 | 0.00 | 71 | 1003.9 |
| 20260505223731 | 30 | 149 | 9.7 | 24.1 | 0.00 | 0.00 | 0.00 | 66 | 1003.7 |
| 20260505221733 | 30 | 149 | 9.7 | 24.1 | 0.00 | 0.00 | 0.00 | 66 | 1003.7 |
| 20260505220731 | 30 | 149 | 9.7 | 24.1 | 0.00 | 0.00 | 0.00 | 66 | 1003.7 |
| 20260505213731 | 31 | 205 | 9.7 | 20.9 | 0.00 | 0.00 | 0.00 | 63 | 1004.1 |
| 20260505210731 | 31 | 205 | 9.7 | 20.9 | 0.00 | 0.00 | 0.00 | 63 | 1004.1 |
| 20260505205731 | 30 | 201 | 12.9 | 30.6 | 0.00 | 0.00 | 0.00 | 66 | 1004.8 |
| 20260505203731 | 30 | 201 | 12.9 | 30.6 | 0.00 | 0.00 | 0.00 | 66 | 1004.8 |
| 20260505201731 | 30 | 201 | 12.9 | 30.6 | 0.00 | 0.00 | 0.00 | 66 | 1004.8 |
| 20260505200731 | 30 | 201 | 12.9 | 30.6 | 0.00 | 0.00 | 0.00 | 66 | 1004.8 |
| 20260505195731 | 27 | 185 | 16.1 | 27.4 | 0.00 | 0.00 | 0.00 | 69 | 1005.2 |
| 20260505194732 | 27 | 185 | 16.1 | 27.4 | 0.00 | 0.00 | 0.00 | 69 | 1005.2 |
| 20260505190731 | 27 | 185 | 16.1 | 27.4 | 0.00 | 0.00 | 0.00 | 69 | 1005.2 |
| 20260505185731 | 26 | 191 | 17.7 | 30.6 | 0.00 | 0.00 | 0.00 | 75 | 1005.4 |
| 20260505184732 | 26 | 191 | 17.7 | 30.6 | 0.00 | 0.00 | 0.00 | 75 | 1005.4 |
| 20260505181732 | 26 | 191 | 17.7 | 30.6 | 0.00 | 0.00 | 0.00 | 75 | 1005.4 |
| 20260505170732 | 26 | 191 | 17.7 | 30.6 | 0.00 | 0.00 | 0.00 | 75 | 1005.4 |
| 20260505161732 | 23 | 184 | 19.3 | 37.0 | 0.00 | 0.00 | 0.00 | 78 | 1005.4 |
| 20260505160732 | 23 | 184 | 19.3 | 37.0 | 0.00 | 0.00 | 0.00 | 78 | 1005.4 |
| 20260505151732 | 22 | 196 | 17.7 | 30.6 | 0.00 | 0.00 | 0.00 | 81 | 1005.3 |
| 20260505150731 | 22 | 196 | 17.7 | 30.6 | 0.00 | 0.00 | 0.00 | 81 | 1005.3 |
| 20260505124731 | 21 | 175 | 12.9 | 33.8 | 0.00 | 0.00 | 0.00 | 88 | 1004.1 |
| 20260505123731 | 21 | 175 | 12.9 | 33.8 | 0.00 | 0.00 | 0.00 | 88 | 1004.1 |
| 20260505122732 | 21 | 175 | 12.9 | 33.8 | 0.00 | 0.00 | 0.00 | 88 | 1004.1 |
| 20260505121733 | 21 | 175 | 12.9 | 33.8 | 0.00 | 0.00 | 0.00 | 88 | 1004.1 |
| 20260505120731 | 21 | 175 | 12.9 | 33.8 | 0.00 | 0.00 | 0.00 | 88 | 1004.1 |
| 20260505114732 | 21 | 165 | 16.1 | 33.8 | 0.00 | 0.00 | 0.00 | 88 | 1003.8 |
| 20260505110731 | 21 | 165 | 16.1 | 33.8 | 0.00 | 0.00 | 0.00 | 88 | 1003.8 |
| 20260505101732 | 21 | 185 | 12.9 | 33.8 | 0.00 | 0.00 | 0.00 | 87 | 1003.9 |
| 20260505100731 | 21 | 185 | 12.9 | 33.8 | 0.00 | 0.00 | 0.00 | 87 | 1003.9 |
| 20260505095732 | 21 | 195 | 12.9 | 27.4 | 0.00 | 0.00 | 0.00 | 87 | 1004.5 |
| 20260505094731 | 21 | 195 | 12.9 | 27.4 | 0.00 | 0.00 | 0.00 | 87 | 1004.5 |
| 20260505093731 | 21 | 195 | 12.9 | 27.4 | 0.00 | 0.00 | 0.00 | 87 | 1004.5 |
| 20260505092731 | 21 | 195 | 12.9 | 27.4 | 0.00 | 0.00 | 0.00 | 87 | 1004.5 |
| 20260505091731 | 21 | 195 | 12.9 | 27.4 | 0.00 | 0.00 | 0.00 | 87 | 1004.5 |
| 20260505090731 | 21 | 195 | 12.9 | 27.4 | 0.00 | 0.00 | 0.00 | 87 | 1004.5 |
| 20260505085731 | 20 | 199 | 16.1 | 37.0 | 0.00 | 0.00 | 0.00 | 87 | 1004.7 |
| 20260505083731 | 20 | 199 | 16.1 | 37.0 | 0.00 | 0.00 | 0.00 | 87 | 1004.7 |
| 20260505082731 | 20 | 199 | 16.1 | 37.0 | 0.00 | 0.00 | 0.00 | 87 | 1004.7 |
| 20260505081731 | 20 | 199 | 16.1 | 37.0 | 0.00 | 0.00 | 0.00 | 87 | 1004.7 |
| 20260505075731 | 21 | 197 | 17.7 | 33.8 | 0.00 | 0.00 | 0.00 | 85 | 1005.5 |
| 20260505073731 | 21 | 197 | 17.7 | 33.8 | 0.00 | 0.00 | 0.00 | 85 | 1005.5 |
| 20260505072731 | 21 | 197 | 17.7 | 33.8 | 0.00 | 0.00 | 0.00 | 85 | 1005.5 |
| 20260505071731 | 21 | 197 | 17.7 | 33.8 | 0.00 | 0.00 | 0.00 | 85 | 1005.5 |
| 20260505070731 | 21 | 197 | 17.7 | 33.8 | 0.00 | 0.00 | 0.00 | 85 | 1005.5 |
| 20260505065732 | 21 | 208 | 16.1 | 33.8 | 0.00 | 0.00 | 0.00 | 82 | 1005.8 |
| 20260505064731 | 21 | 208 | 16.1 | 33.8 | 0.00 | 0.00 | 0.00 | 82 | 1005.8 |
| 20260505063731 | 21 | 208 | 16.1 | 33.8 | 0.00 | 0.00 | 0.00 | 82 | 1005.8 |
| 20260505061732 | 21 | 208 | 16.1 | 33.8 | 0.00 | 0.00 | 0.00 | 82 | 1005.8 |
| 20260505055733 | 22 | 177 | 12.9 | 30.6 | 0.00 | 0.00 | 0.00 | 80 | 1006.3 |